Skip Page Navigation
NASA JPL Caltech
NASA Logo - Jet Propulsion Laboratory + View the NASA Portal
+ Center for Near-Earth Object Studies
JPL Home Earth Solar System Stars & Galaxies Technology
JPL Solar System Dynamics
BODIES ORBITS EPHEMERIDES TOOLS PHYSICAL DATA DISCOVERY FAQ SITE MAP
JPL Small-Body Database Browser
Search: [ help ]  
52662 (1998 BW12)
Classification: Main-belt Asteroid          SPK-ID: 2052662
Ephemeris | Orbit Diagram | Orbital Elements | Mission Design | Physical Parameters | Discovery Circumstances | Close-Approach Data ]

[ show orbit diagram ]
Orbital Elements at Epoch 2459000.5 (2020-May-31.0) TDB
Reference: JPL 22 (heliocentric ecliptic J2000)
 Element Value Uncertainty (1-sigma)   Units 
e .1698759546181071 5.0842e-08  
a 2.747422194622274 1.8701e-08 au
q 2.28070122657184 1.368e-07 au
i 13.21226849724822 5.1523e-06 deg
node 304.0422571278941 2.3403e-05 deg
peri 260.2345951534359 2.731e-05 deg
M 260.4444492053616 1.6247e-05 deg
tp 2459460.491184806888
(2021-Sep-02.99118481)
7.7088e-05 TDB
period 1663.361060319682
4.55
1.6983e-05
4.65e-08
d
yr
n .216429257957266 2.2098e-09 deg/d
Q 3.214143162672707 2.1878e-08 au
  Orbit Determination Parameters
   # obs. used (total)      764  
   data-arc span      9190 days (25.16 yr)  
   first obs. used      1995-08-22  
   last obs. used      2020-10-19  
   planetary ephem.      DE431  
   SB-pert. ephem.      SB431-N16  
   condition code      0  
   norm. resid. RMS      .56684  
   source      ORB  
   producer      Otto Matic  
   solution date      2020-Nov-12 23:16:45  

Additional Information
 Earth MOID = 1.32271 au 
 Jupiter MOID = 1.988 au 
 T_jup = 3.288 
[ show covariance matrix ]

Ephemeris | Orbit Diagram | Orbital Elements | Mission Design | Physical Parameters | Discovery Circumstances | Close-Approach Data ]

Physical Parameter Table
Parameter Symbol Value Units Sigma Reference Notes
absolute magnitude H 14.4   n/a MPO400512  

52662 (1998 BW12)          Discovered 1998-Jan-23 by LINEAR at Socorro
Reference: 20030216/Numbers.arcLast Updated: 2004-04-19

[ hide close-approach data ]
Close-Approach Data   ...sorted by Date/Time (TDB)
Date/Time (TDB) Time Uncertainty
(days_HH:MM)
Body Nominal Distance (au) Minimum Distance (au) Maximum Distance (au) V-relative (km/s) V-infinity (km/s) JD (TDB) Time Uncertainty (minutes) Semi-major axis (km) Semi-minor axis (km) range-LOV angle (deg) N-sigma BP Orbit Ref. Reference Modified
1927-Dec-25 15:58 00:03 Jupiter 1.9827582199138 1.98275761990231 1.98275881994806 2.45127572592046 2.27032257241102 2425240.165065295 2.90290221800609 1187.98941673128 29.0910344159868 85.7062286214607 2031560.42967528 T 22 CATAB v2.0f-lin.ifort 2020-Nov-12 23:16:47 2020-Nov-12 23:16
1987-Feb-25 05:57 < 00:01 Jupiter 1.98814925489564 1.98814869829608 1.98814981149543 2.69408892286997 2.53101635085513 2446851.747645596 0.942497296163423 546.138436733614 24.1058688665376 87.1481706349213 2064408.09117374 T 22 CATAB v2.0f-lin.ifort 2020-Nov-12 23:16:47 2020-Nov-12 23:16
2046-Apr-27 15:49 00:01 Jupiter 1.99875752234997 1.99875694876427 1.99875809593556 2.94530324767166 2.79772446366016 2468463.159119743 1.02347158225389 414.365928561082 21.4638174519788 87.7811775236585 1647641.11603583 T 22 CATAB v2.0f-lin.ifort 2020-Nov-12 23:16:47 2020-Nov-12 23:16

Alternate Designations
 1998 BW12 = 1995 QL6 
Ephemeris | Orbit Diagram | Orbital Elements | Mission Design | Physical Parameters | Discovery Circumstances | Close-Approach Data ]
ABOUT SSD CREDITS/AWARDS PRIVACY/COPYRIGHT GLOSSARY LINKS
FirstGov 2020-Nov-24 21:48 UT
(server date/time)  
NASA Home Page
Site Manager:   Ryan S. Park
Webmaster  Alan B. Chamberlin